Flag for U.S.A. Weather past 2 weeks in Baltimore, Maryland, U.S.A.

Now
39 °F

Clear.


Feels Like: 35 °F
Forecast: 41 / 63 °F
Wind: 6 mph from West

Location: Baltimore-Washington International Airport


UV Index: 5 (Moderate)

Visibility: 10 mi


Pressure: 30.00 "Hg

Humidity: 65%

Dew point: 28 °F

Location of BaltimoreLocation

Historic Weather in Baltimore

°F

Baltimore temperature yesterday

Maximum temperature yesterday: 58 °F (at 2:54 PM)
Minimum temperature yesterday: 43 °F (at 11:54 PM)
Average temperature yesterday: 52 °F

Past Weeks' High & Low Weather Summary

 TemperatureHumidityPressure
High83 °F (Apr 13, 3:54 PM)97% (Apr 15, 10:54 AM)30.67 "Hg (Apr 15, 10:54 AM)
Low31 °F (Apr 16, 5:54 AM)20% (Apr 11, 4:54 PM)29.54 "Hg (Apr 15, 12:54 PM)
Average55 °F55%30.09 "Hg
* Reported Apr 9 2:54 AM — Apr 24 2:54 AM, Baltimore, Weather by CustomWeather, © 2014

Note: Actual official high and low records may vary slightly from our data, if they occured in-between our weather recording intervals... More about our weather records

Advertising

Historic Weather Conditions — Data for Previous 24 hours

 ConditionsComfort  
Time TempWeatherWind HumidityBarometerVisibility
2:54 AM
Apr 24
40 °FClear.7 mph65%29.99 "Hg10 mi
1:54 AM41 °FClear.7 mph62%29.99 "Hg10 mi
12:54 AM42 °FClear.7 mph62%29.98 "Hg10 mi
11:54 PM
Apr 23
43 °FClear.6 mph60%29.97 "Hg10 mi
10:54 PM45 °FClear.7 mph56%29.97 "Hg10 mi
9:54 PM48 °FClear.12 mph50%29.96 "Hg10 mi
8:54 PM50 °FPassing clouds.16 mph48%29.92 "Hg10 mi
7:54 PM52 °FScattered clouds.14 mph49%29.87 "Hg10 mi
6:54 PM54 °FPassing clouds.17 mph45%29.85 "Hg10 mi
5:54 PM56 °FScattered clouds.21 mph44%29.83 "Hg10 mi
4:54 PM56 °FScattered clouds.17 mph46%29.82 "Hg10 mi
3:54 PM58 °FScattered clouds.20 mph43%29.80 "Hg10 mi
2:54 PM58 °FScattered clouds.21 mph43%29.79 "Hg10 mi
1:54 PM57 °FScattered clouds.22 mph44%29.79 "Hg10 mi
12:54 PM55 °FScattered clouds.17 mph45%29.78 "Hg10 mi
11:54 AM54 °FPartly sunny.17 mph47%29.78 "Hg10 mi
10:54 AM53 °FScattered clouds.20 mph47%29.79 "Hg10 mi
9:54 AM52 °FPartly sunny.16 mph47%29.79 "Hg10 mi
8:54 AM50 °FPartly sunny.22 mph48%29.78 "Hg10 mi
7:54 AM50 °FScattered clouds.15 mph52%29.76 "Hg10 mi
6:54 AM48 °FPassing clouds.12 mph61%29.74 "Hg10 mi
5:54 AM47 °FPassing clouds.9 mph64%29.71 "Hg10 mi
4:54 AM48 °FPassing clouds.10 mph59%29.70 "Hg10 mi
Weather by CustomWeather, © 2014

See weather overview